Volver al catálogo

COSMOS 1375 DEB

ActivoLEO
NORAD 16210·DEBRIS·🇷🇺 Russia

Lanzado Jun 6, 1982 desde Plesetsk Cosmodrome

Loading…

Próximos Pases (próximas 24 horas)

TLE

ActualizadoSource: Space-Track

Época: Sep 14, 2026, 10:34 UTC

1 16210U 82055M   26257.44053539 -.00000068  00000-0  13008-4 0  9996
2 16210  65.8326 219.6267 0022133  18.5270  66.7701 13.74591189 52180

Sigue COSMOS 1375 DEB en tiempo real con AllMySat

Download on the App Store